STARLINK-35770, 66977

Orbit data source: Space-Track

STARLINK-35770, 66977 is a payload satellite owned by SpaceX/Seattle (US) in LEO that was launched on Mon, 08 Dec 2025 UTC via an FALCON 9 launch vehicle from the Air Force Eastern Test Range (AFETR). Payload-class satellites include a variety of spacecraft equipped with specific instruments for various scientific and technological missions. These include communications satellites like Starlink; space stations such as the ISS; scientific satellites like the Hubble; Earth observation satellites from companies like Planet Labs, Umbra, and HawkEye 360; GPS; miniature CubeSats for education and research; and military/defense satellites.

Loading next visibility...
Identifier
66977, 2025-288U
Orbit
LEO
Country
Flag of USUS
Related business
Manufacturer
SpaceX/Seattle
Mission
Operational Commercial Communications
Bus & Motor
STARLINK V2MO, Unknown motor
Mass
575 kg wet, ~530 kg dry
Launch date (UTC)
2025-12-08 (7 months ago)
Launch vehicle
FALCON 9
Launch site
Air Force Eastern Test Range (AFETR)
Object type
Payload
Rocket body
Debris
Shape & HBR
Box + 2 Pan, 17.7 m
Radar Cross Section
36.964 m², Large (>1 m²)

Expand to show TLE details & history
Last TLE update: 10 hours ago

TLE from 10 hours ago
0 STARLINK-35770
1 66977U 25288U   26177.54949022  .00026852  00000-0  98115-3 0  9998
2 66977  43.0015 128.8804 0001951 266.3935  93.6693 15.27600090 31933
Epoch: 2026-06-26T13:11Z
TLE epoch observation values (Epoch: 2026-06-26T13:11:15.955Z)
Latitude
-0.00004°
Longitude
16.38748°
Altitude
482.85 km
Speed
7.626 km/s
True Right ascension
08h 35m 31s
True Declination
0° 00' 00"
Sunlit
Object was in daylight at epoch
Visualization orbit readout
Latitude
Unknown
Longitude
Unknown
Altitude
Unknown
Speed
Unknown
Apparent Right ascension
Unknown
Apparent Declination
Unknown
Sunlit
N/A
Visualization observer readout
Local Sidereal Time
10:40:18
Azimuth
Unknown
Elevation
Unknown
Doppler factor
Unknown
Orbital elements
Apogee altitude
486.273 km
Perigee altitude
483.595 km
Semi-major axis
6,863.071 km
Eccentricity
0.0002
Inclination
43.0015°
RAAN
128.8804°
Arg. of periapsis
266.3935°
True anomaly
93.69161°
Mean anomaly
93.6693°
Eccentric anomaly
93.68046°
Mean motion
3.81738 °/min
Orbital period
94.31 mins
BSTAR
0.00098115
Loading maneuver chart data...
Computing Atmospheric mass density...
Loading historical data...
Loading historical data...
Loading historical data...
Loading historical data...
Loading historical data...
Loading historical data...
Loading historical data...

Documentation

Showing up to 5 results
|